Time,TemperatureF,DewpointF,PressureIn,WindDirection,WindDirectionDegrees,WindSpeedMPH,WindSpeedGustMPH,Humidity,HourlyPrecipIn,Conditions,Clouds,dailyrainin,SoftwareType,DateUTC
2018-05-23 00:04:00,62.3,45.0,30.06,WNW,293,3.6,4.7,53,0.00,,,0.00,WSDL version 536,2018-05-22 22:04:00,
2018-05-23 00:09:00,63.0,44.7,30.06,WNW,285,2.8,4.0,51,0.00,,,0.00,WSDL version 536,2018-05-22 22:09:00,
2018-05-23 00:14:00,63.1,44.5,30.03,West,278,1.6,3.4,51,0.00,,,0.00,WSDL version 536,2018-05-22 22:14:00,
2018-05-23 00:19:00,63.2,44.1,30.03,WSW,248,3.1,4.3,50,0.00,,,0.00,WSDL version 536,2018-05-22 22:19:00,
2018-05-23 00:24:00,63.8,44.1,30.03,West,270,3.7,5.6,49,0.00,,,0.00,WSDL version 536,2018-05-22 22:24:00,
2018-05-23 00:29:00,63.8,43.7,30.03,WSW,248,1.6,5.6,48,0.00,,,0.00,WSDL version 536,2018-05-22 22:29:00,
2018-05-23 00:34:00,63.5,43.5,30.03,WSW,248,1.7,2.9,48,0.00,,,0.00,WSDL version 536,2018-05-22 22:34:00,
2018-05-23 00:39:00,64.0,43.4,30.03,WSW,240,2.2,3.8,47,0.00,,,0.00,WSDL version 536,2018-05-22 22:39:00,
2018-05-23 00:44:00,64.6,43.0,30.03,SW,225,2.8,3.8,45,0.00,,,0.00,WSDL version 536,2018-05-22 22:44:00,
2018-05-23 00:49:00,64.5,42.7,30.03,WSW,255,2.7,3.8,45,0.00,,,0.00,WSDL version 536,2018-05-22 22:49:00,
2018-05-23 00:54:00,64.7,42.9,30.03,NW,315,3.4,4.3,45,0.00,,,0.00,WSDL version 536,2018-05-22 22:54:00,
2018-05-23 00:59:00,64.6,42.2,30.03,North,353,2.2,7.2,44,0.00,,,0.00,WSDL version 536,2018-05-22 22:59:00,
2018-05-23 01:04:00,64.5,42.5,30.03,NNW,330,1.9,7.2,45,0.00,,,0.00,WSDL version 536,2018-05-22 23:04:00,
2018-05-23 01:09:00,64.3,42.3,30.03,North,353,2.8,3.1,45,0.00,,,0.00,WSDL version 536,2018-05-22 23:09:00,
2018-05-23 01:14:00,65.2,42.4,30.03,NNE,15,4.2,7.8,43,0.00,,,0.00,WSDL version 536,2018-05-22 23:14:00,
2018-05-23 01:19:00,65.7,42.4,30.03,NNW,338,5.8,8.5,43,0.00,,,0.00,WSDL version 536,2018-05-22 23:19:00,
2018-05-23 01:24:00,65.8,42.4,30.03,NNE,15,3.9,8.5,43,0.00,,,0.00,WSDL version 536,2018-05-22 23:24:00,
2018-05-23 01:29:00,65.8,42.1,30.03,NNE,15,6.8,8.7,42,0.00,,,0.00,WSDL version 536,2018-05-22 23:29:00,
2018-05-23 01:34:00,66.2,41.5,30.03,North,360,6.3,8.7,41,0.00,,,0.00,WSDL version 536,2018-05-22 23:34:00,
2018-05-23 01:39:00,66.4,41.6,30.03,NNW,330,4.0,7.6,40,0.00,,,0.00,WSDL version 536,2018-05-22 23:39:00,
2018-05-23 01:44:00,66.5,41.2,30.03,North,360,10.1,10.3,40,0.00,,,0.00,WSDL version 536,2018-05-22 23:44:00,
2018-05-23 01:49:00,66.6,40.9,30.03,NNW,330,7.1,12.1,39,0.00,,,0.00,WSDL version 536,2018-05-22 23:49:00,
2018-05-23 01:54:00,66.6,40.9,30.03,West,270,7.5,12.1,39,0.00,,,0.00,WSDL version 536,2018-05-22 23:54:00,
2018-05-23 01:59:00,66.7,40.2,30.00,North,353,7.3,9.4,38,0.00,,,0.00,WSDL version 536,2018-05-22 23:59:00,
2018-05-23 02:04:00,67.0,40.3,30.00,NE,56,5.7,9.4,38,0.00,,,0.00,WSDL version 536,2018-05-23 00:04:00,
2018-05-23 02:08:00,66.9,40.5,30.00,North,8,5.0,9.2,38,0.00,,,0.00,WSDL version 536,2018-05-23 00:08:00,
2018-05-23 02:13:00,66.9,40.5,30.00,NW,324,4.7,9.2,38,0.00,,,0.00,WSDL version 536,2018-05-23 00:13:00,
2018-05-23 02:18:00,66.6,40.2,30.00,NNE,15,6.1,8.5,38,0.00,,,0.00,WSDL version 536,2018-05-23 00:18:00,
2018-05-23 02:23:00,66.7,39.9,30.00,SE,143,5.1,9.8,37,0.00,,,0.00,WSDL version 536,2018-05-23 00:23:00,
2018-05-23 02:28:00,66.8,40.0,30.00,NNW,338,6.3,14.5,37,0.00,,,0.00,WSDL version 536,2018-05-23 00:28:00,
2018-05-23 02:33:00,66.9,39.8,30.00,NNW,330,7.9,14.5,37,0.00,,,0.00,WSDL version 536,2018-05-23 00:33:00,
2018-05-23 02:38:00,66.9,40.2,30.00,North,353,4.8,13.0,38,0.00,,,0.00,WSDL version 536,2018-05-23 00:38:00,
2018-05-23 02:43:00,66.7,39.9,30.00,North,351,4.5,9.6,37,0.00,,,0.00,WSDL version 536,2018-05-23 00:43:00,
2018-05-23 02:48:00,66.7,39.6,30.00,NW,326,8.6,11.0,37,0.00,,,0.00,WSDL version 536,2018-05-23 00:48:00,
2018-05-23 02:53:00,66.6,39.8,30.00,WNW,300,10.4,11.0,37,0.00,,,0.00,WSDL version 536,2018-05-23 00:53:00,
2018-05-23 02:58:00,66.7,39.7,30.00,North,354,5.3,10.5,37,0.00,,,0.00,WSDL version 536,2018-05-23 00:58:00,
2018-05-23 03:03:00,66.8,39.7,30.00,NNW,345,6.0,6.9,37,0.00,,,0.00,WSDL version 536,2018-05-23 01:03:00,
2018-05-23 03:04:00,66.8,39.7,30.00,NNW,345,6.0,6.5,37,0.00,,,0.00,WSDL version 536,2018-05-23 01:04:00,
2018-05-23 03:09:00,66.9,39.8,30.00,NNW,338,5.5,7.2,37,0.00,,,0.00,WSDL version 536,2018-05-23 01:09:00,
2018-05-23 03:14:00,67.0,39.9,30.00,NW,315,3.6,7.2,37,0.00,,,0.00,WSDL version 536,2018-05-23 01:14:00,
2018-05-23 03:19:00,66.8,39.7,30.00,North,8,7.1,8.7,37,0.00,,,0.00,WSDL version 536,2018-05-23 01:19:00,
2018-05-23 03:24:00,66.9,39.8,30.00,NNW,345,3.9,8.7,37,0.00,,,0.00,WSDL version 536,2018-05-23 01:24:00,
2018-05-23 03:27:00,67.1,39.6,30.00,North,353,6.9,8.7,37,0.00,,,0.00,WSDL version 536,2018-05-23 01:27:00,
2018-05-23 03:32:00,67.3,39.7,30.00,NNE,15,7.4,9.6,36,0.00,,,0.00,WSDL version 536,2018-05-23 01:32:00,
2018-05-23 03:37:00,67.5,39.6,30.00,NNW,345,7.2,10.3,36,0.00,,,0.00,WSDL version 536,2018-05-23 01:37:00,
2018-05-23 03:42:00,67.3,39.4,30.00,North,11,6.3,11.0,36,0.00,,,0.00,WSDL version 536,2018-05-23 01:42:00,
2018-05-23 03:47:00,67.4,39.5,30.00,NNE,23,7.7,11.0,36,0.00,,,0.00,WSDL version 536,2018-05-23 01:47:00,
2018-05-23 03:52:00,67.3,39.5,30.00,NW,315,5.4,12.8,36,0.00,,,0.00,WSDL version 536,2018-05-23 01:52:00,
2018-05-23 03:57:00,67.3,39.4,30.00,SSE,158,5.0,12.8,36,0.00,,,0.00,WSDL version 536,2018-05-23 01:57:00,
2018-05-23 04:02:00,67.5,39.6,30.00,NNE,23,5.4,6.5,36,0.00,,,0.00,WSDL version 536,2018-05-23 02:02:00,
2018-05-23 04:07:00,67.3,39.4,30.00,NNW,332,5.4,7.4,36,0.00,,,0.00,WSDL version 536,2018-05-23 02:07:00,
2018-05-23 04:12:00,67.1,39.3,30.00,NNE,30,3.2,7.4,36,0.00,,,0.00,WSDL version 536,2018-05-23 02:12:00,
2018-05-23 04:17:00,67.2,39.4,30.00,NNW,338,3.6,4.9,36,0.00,,,0.00,WSDL version 536,2018-05-23 02:17:00,
2018-05-23 04:22:00,67.2,39.4,30.00,NW,320,3.6,4.9,36,0.00,,,0.00,WSDL version 536,2018-05-23 02:22:00,
2018-05-23 04:27:00,67.1,39.3,30.00,West,270,5.2,5.4,36,0.00,,,0.00,WSDL version 536,2018-05-23 02:27:00,
2018-05-23 04:32:00,67.3,39.0,30.00,NW,321,5.3,6.7,35,0.00,,,0.00,WSDL version 536,2018-05-23 02:32:00,
2018-05-23 04:37:00,67.5,38.9,30.00,North,349,4.4,7.8,35,0.00,,,0.00,WSDL version 536,2018-05-23 02:37:00,
2018-05-23 04:42:00,67.5,38.9,30.00,NNE,23,2.0,7.8,35,0.00,,,0.00,WSDL version 536,2018-05-23 02:42:00,
2018-05-23 04:47:00,67.6,39.0,30.00,NW,308,3.5,7.6,35,0.00,,,0.00,WSDL version 536,2018-05-23 02:47:00,
2018-05-23 04:52:00,67.5,38.9,30.00,North,349,5.9,7.8,35,0.00,,,0.00,WSDL version 536,2018-05-23 02:52:00,
2018-05-23 04:57:00,67.5,38.9,30.00,WNW,300,3.1,7.8,35,0.00,,,0.00,WSDL version 536,2018-05-23 02:57:00,
2018-05-23 05:02:00,67.2,38.7,30.00,North,8,1.9,4.7,35,0.00,,,0.00,WSDL version 536,2018-05-23 03:02:00,
2018-05-23 05:07:00,67.0,38.5,30.00,North,353,5.1,7.2,35,0.00,,,0.00,WSDL version 536,2018-05-23 03:07:00,
2018-05-23 05:12:00,67.0,38.5,29.97,North,8,2.8,7.2,35,0.00,,,0.00,WSDL version 536,2018-05-23 03:12:00,
2018-05-23 05:17:00,66.9,38.4,29.97,NW,323,3.6,5.8,35,0.00,,,0.00,WSDL version 536,2018-05-23 03:17:00,
2018-05-23 05:22:00,67.0,38.5,29.97,West,275,2.1,5.8,35,0.00,,,0.00,WSDL version 536,2018-05-23 03:22:00,
2018-05-23 05:27:00,67.0,38.5,30.00,NNE,17,2.3,3.1,35,0.00,,,0.00,WSDL version 536,2018-05-23 03:27:00,
2018-05-23 05:32:00,67.0,38.5,30.00,North,353,4.6,5.4,35,0.00,,,0.00,WSDL version 536,2018-05-23 03:32:00,
2018-05-23 05:37:00,67.1,38.6,30.00,WSW,240,3.4,5.4,35,0.00,,,0.00,WSDL version 536,2018-05-23 03:37:00,
2018-05-23 05:42:00,67.0,38.5,30.00,NNW,338,5.2,6.5,35,0.00,,,0.00,WSDL version 536,2018-05-23 03:42:00,
2018-05-23 05:47:00,67.0,38.5,30.00,North,8,3.6,8.1,35,0.00,,,0.00,WSDL version 536,2018-05-23 03:47:00,
2018-05-23 05:52:00,67.0,38.5,30.00,East,86,4.1,8.1,35,0.00,,,0.00,WSDL version 536,2018-05-23 03:52:00,
2018-05-23 05:57:00,67.0,38.5,30.00,NW,315,6.0,7.6,35,0.00,,,0.00,WSDL version 536,2018-05-23 03:57:00,
2018-05-23 06:02:00,67.0,38.5,30.00,NNW,330,2.6,7.6,35,0.00,,,0.00,WSDL version 536,2018-05-23 04:02:00,
2018-05-23 06:07:00,67.2,38.6,30.00,North,8,6.0,7.6,35,0.00,,,0.00,WSDL version 536,2018-05-23 04:07:00,
2018-05-23 06:12:00,67.3,38.7,30.00,NNE,30,4.1,7.4,35,0.00,,,0.00,WSDL version 536,2018-05-23 04:12:00,